STARLINK-32751 (62753 NORAD) Tracking and Keplerian Element Data

This shows tracking and keplerian element data for the satellite.

Feedback or suggestion? Click here.




ElementValue
Catalog62753
NameSTARLINK-32751
Epoch Orbit221
Epoch Day35.25001157
Epoch Year2025
RAAN253.8074
Inclination42.9996
Eccentricity0.000159
Argument of Perigee277.7902
Mean Anonmoly114.4492
Mean Motion15.64287085
Decay Rate-0.01418711
L11 62753U 25014U 25035.25001157 -.01418711 00000+0 -16065-1 0 9994
L22 62753 42.9996 253.8074 0001590 277.7902 114.4492 15.64287085 2218



Live tracking and technical data element details for STARLINK-32751 (NORAD 62753). STARLINK-32751 can be tracked NOW for your location showing map with azimuth and elevation plus other details from your city location.







IsCatalogInMostPopularTable: catalog: 62753, numindb: 3
Update: records affected: 1



GetName: 62753 STARLINK-32751

Hit Count: updated at: Sun, 09 Feb 2025 14:42:17 GMT